Temperature
14 14 14 14 14 14 14 14 14 13 12 12 12 12 12 12 12 12 12 11 11 11 11 11 11 11 11 11 10 10 10 10 10 10 10 9 9 9
14 14 14 14 14 14 14 14 13 13 13 12 12 12 12 12 12 12 11 11 11 11 11 11 11 10 10 10 10 10 10 10 9 9 9 9 9 9
14 14 14 14 14 14 13 13 13 13 13 12 12 12 12 12 12 11 11 11 11 11 11 10 10 10 10 10 10 9 9 9 9 9 9 9 8 8
14 14 14 14 14 13 13 13 13 13 13 12 12 12 12 12 11 11 11 11 11 11 10 10 10 10 10 10 9 9 9 9 9 9 8 8 8 8
14 14 14 13 13 13 13 13 13 13 13 12 12 12 12 11 11 11 11 11 11 10 10 10 10 10 10 9 9 9 9 9 8 8 8 8 8 8
13 13 13 13 13 13 13 13 13 12 12 12 12 12 11 11 11 11 11 10 10 10 10 10 10 9 9 9 9 9 8 8 8 8 8 8 8 7
13 13 13 13 13 13 13 13 12 12 12 12 12 11 11 11 11 11 10 10 10 10 10 10 9 9 9 9 8 8 8 8 8 8 8 7 7 7
13 13 13 13 13 13 12 12 12 12 12 12 12 11 11 11 11 10 10 10 10 9 9 9 9 9 9 8 8 8 7 7 7 7 7 7 7 7
13 13 13 12 12 12 12 12 12 12 11 11 11 11 11 11 10 10 10 10 9 9 9 9 9 9 8 8 8 8 7 7 7 7 7 7 7 6
12 12 12 12 12 12 12 12 12 11 11 11 11 11 10 10 10 10 9 9 9 9 9 8 8 8 8 8 7 7 7 7 7 7 6 6 6 6
12 12 12 12 12 12 12 12 11 11 11 11 11 10 10 10 10 9 9 9 9 9 8 8 8 8 7 7 7 7 7 7 6 6 6 6 6 6
12 12 12 12 12 11 11 11 11 11 11 11 10 10 10 10 10 9 9 9 8 8 8 8 8 7 7 7 7 7 6 6 6 6 6 6 5 5
12 12 12 11 11 11 11 11 11 11 10 10 10 10 10 10 9 9 9 8 8 8 7 7 7 7 6 6 7 6 6 6 6 6 5 5 5 5
12 12 11 11 11 11 11 11 10 10 10 10 10 10 10 9 9 9 8 8 8 7 7 7 6 6 6 6 6 6 6 6 6 5 5 5 5 5
11 11 11 11 11 11 10 10 10 10 10 10 10 9 9 9 8 8 8 7 7 7 7 6 6 6 6 5 5 5 5 5 5 5 5 5 4 4
11 11 11 10 10 10 10 10 10 10 9 9 9 9 8 8 8 8 7 7 7 7 6 6 6 6 5 5 5 5 5 5 5 5 4 4 4 4
10 10 10 10 10 10 10 10 9 9 9 9 9 8 8 8 8 7 7 7 6 6 6 6 6 5 5 5 5 5 4 4 4 4 4 4 4 3
10 10 10 10 10 10 9 9 9 9 9 8 8 8 8 7 7 7 6 6 6 6 6 6 5 5 5 5 5 4 4 4 4 4 3 3 3 3
9 10 9 9 9 9 9 9 8 8 8 8 8 7 7 7 7 6 6 6 6 5 5 5 5 4 4 4 4 4 4 3 3 3 3 3 3 3
9 9 9 9 9 8 8 8 8 8 7 7 7 7 7 6 6 6 6 5 5 5 5 4 4 4 4 3 3 4 3 3 3 3 3 2 2 2
9 9 8 8 8 8 8 7 7 7 7 7 6 6 6 6 6 5 5 5 4 4 4 4 4 3 3 3 3 3 3 3 2 2 2 2 2 2
8 8 8 8 7 7 7 7 7 6 6 6 6 6 6 5 5 5 5 4 4 4 4 3 3 3 3 2 2 2 2 3 2 2 2 1 1 1
7 7 7 7 7 7 7 6 6 6 6 6 5 5 5 5 5 4 4 4 3 3 3 3 3 2 2 2 2 2 2 2 2 2 2 2 1 1
Wind_Speed
2 2 2 1 1 1 2 4 5 3 1 1 1 1 2 3 4 4 4 4 5 5 5 5 6 6 6 6 6 6 6 6 6 6 6 6 6 6
2 2 1 1 1 1 2 2 3 4 3 1 2 1 2 3 3 4 4 4 4 5 5 5 5 5 5 5 5 5 5 5 5 5 5 6 6 6
2 2 1 2 2 2 2 2 3 4 4 1 0 1 2 2 3 3 3 3 3 4 4 3 3 4 4 4 4 4 4 4 4 4 4 4 5 5
2 2 2 2 2 2 2 3 2 3 4 3 1 1 1 2 2 2 2 2 2 2 2 2 2 3 3 3 3 3 4 4 3 3 4 4 5 5
3 3 2 3 2 2 2 2 2 3 3 4 2 0 1 1 2 1 2 1 1 1 1 1 1 2 2 2 2 2 2 2 3 3 3 3 4 4
2 3 3 4 4 4 3 3 3 4 4 4 2 1 1 0 2 1 1 1 1 1 1 1 0 0 0 0 1 1 1 1 2 2 3 3 3 4
2 2 2 4 4 4 4 4 4 4 3 3 2 1 1 1 1 1 1 0 1 1 1 1 1 1 2 3 3 2 2 2 2 2 2 3 3 4
2 1 2 2 3 5 5 6 6 5 4 3 2 2 2 2 1 2 2 1 1 1 1 1 0 1 2 3 3 3 2 3 3 3 3 4 4 4
3 2 2 2 3 3 3 4 4 4 5 5 4 4 3 3 3 2 2 3 2 2 2 1 1 1 3 3 3 2 2 3 3 3 4 4 4 5
3 3 3 2 3 4 3 3 1 1 2 3 4 4 4 4 4 3 3 2 0 0 2 1 1 2 3 4 4 3 3 3 4 4 4 5 5 5
2 2 3 3 4 6 5 3 1 1 0 2 3 2 2 3 4 3 2 2 1 2 1 2 1 1 2 3 4 4 4 4 5 5 5 5 5 5
1 1 3 4 4 6 5 4 3 2 1 1 1 1 1 2 3 4 4 3 1 2 2 2 1 0 2 2 2 3 4 5 6 6 6 5 5 3
2 2 2 4 5 6 6 5 5 4 2 2 1 1 1 1 1 1 3 3 3 3 2 2 2 1 2 2 2 3 3 3 4 5 6 6 6 4
3 3 3 4 5 5 5 5 5 4 3 2 1 1 1 1 1 1 2 3 3 4 4 4 2 3 2 2 3 3 3 4 3 3 4 5 6 6
3 4 3 3 3 3 4 4 4 3 3 2 2 2 2 2 1 0 1 1 2 2 2 3 2 2 3 3 3 3 3 3 4 3 3 4 4 3
1 2 2 2 2 2 1 1 2 3 3 3 3 2 1 1 1 1 1 0 1 3 3 3 3 3 3 3 3 4 3 3 2 3 3 4 4 5
3 2 1 1 1 0 0 1 1 1 2 2 2 1 1 1 1 1 1 1 1 2 2 2 2 2 3 3 3 4 3 3 3 3 2 3 4 5
4 2 3 3 3 3 2 2 2 2 3 3 2 2 3 3 2 1 1 2 2 3 3 2 1 2 2 3 4 4 3 3 3 3 2 3 5 5
3 3 4 4 4 3 3 3 3 3 3 3 3 3 3 3 2 2 2 2 3 3 3 2 1 1 2 5 4 4 4 4 3 3 3 4 5 6
3 4 4 4 4 4 4 3 3 3 2 3 3 3 3 3 3 3 3 3 3 3 3 2 3 4 5 5 4 4 6 4 3 4 4 4 4 6
4 4 4 4 4 4 4 4 4 4 4 3 3 3 3 3 3 3 4 5 4 3 5 5 5 5 2 1 3 4 4 6 6 4 3 3 4 4
4 4 4 4 4 4 4 4 4 4 4 4 4 4 4 4 4 4 4 4 4 5 6 5 3 2 2 4 6 6 5 5 6 8 8 7 3 4
4 4 3 4 4 4 4 4 5 4 4 4 4 4 4 4 4 4 4 4 4 5 4 4 3 2 4 5 5 5 6 6 4 4 5 8 10 11
Wind_Direction
144 141 139 150 130 133 149 152 148 153 209 285 304 286 167 155 152 138 128 111 100 93 89 81 77 76 70 64 56 52 52 47 42 36 29 25 26 28
141 123 114 109 100 106 134 135 142 149 168 231 240 220 144 137 146 138 127 112 106 102 94 85 80 73 68 64 58 52 50 46 37 26 21 20 20 18
117 120 113 107 100 88 95 101 109 126 143 212 336 98 112 118 110 127 137 122 115 108 104 91 81 71 66 65 60 51 46 40 30 23 16 13 11 12
137 122 123 114 103 91 99 101 109 120 137 148 135 76 114 142 125 123 119 126 126 108 111 103 89 76 68 69 65 60 55 46 39 30 22 17 13 9
154 146 147 125 122 111 108 106 100 102 109 133 145 78 78 102 97 93 95 70 99 109 125 126 110 85 76 71 61 60 57 45 36 30 21 14 9 0
140 151 152 149 156 142 128 123 112 102 103 113 116 95 94 101 104 122 73 20 24 37 64 90 102 65 315 324 346 356 14 22 16 11 6 0 355 349
114 134 145 147 148 142 136 140 128 117 113 114 119 99 88 121 179 183 155 340 338 7 31 9 29 355 310 297 295 294 295 300 308 314 322 326 329 330
132 146 133 123 131 129 127 133 138 138 147 141 140 150 197 196 177 158 146 114 289 289 118 322 68 268 282 285 297 294 297 304 309 305 303 305 309 313
148 144 138 132 123 124 118 118 122 134 150 156 159 185 195 205 182 177 180 172 213 228 131 281 317 284 283 291 297 288 297 308 311 312 314 311 308 308
163 172 165 166 154 147 134 117 109 129 161 156 176 195 198 198 188 187 186 164 326 346 136 210 272 268 291 285 288 279 290 298 303 307 309 312 309 310
176 166 169 176 176 156 141 144 140 304 340 185 194 195 200 181 155 116 113 122 240 269 195 172 249 279 290 287 285 286 281 284 289 296 303 310 309 305
177 189 177 174 171 162 159 160 177 228 197 67 67 73 89 122 146 152 166 161 181 249 234 168 212 186 303 289 293 294 289 287 293 292 294 298 304 300
191 216 219 194 183 179 174 180 194 185 164 146 116 60 47 59 86 151 166 171 181 226 216 162 186 193 216 275 294 279 280 286 291 292 289 290 291 279
196 212 214 200 194 187 183 188 183 156 136 133 132 173 223 245 247 218 207 208 210 221 210 173 181 194 202 246 273 286 281 274 263 274 277 292 289 284
197 191 194 198 193 193 190 177 158 146 147 158 190 220 227 230 185 92 10 323 321 302 243 209 196 199 197 223 248 258 274 271 252 258 264 261 253 259
181 163 159 153 141 140 145 165 164 173 170 186 206 224 214 178 198 191 200 228 304 308 315 271 238 198 220 237 237 256 251 259 267 258 261 265 265 259
154 110 103 106 123 150 182 194 178 164 184 191 185 199 213 216 236 220 188 169 215 269 296 318 325 272 238 229 250 256 257 266 264 255 259 270 262 258
149 169 191 194 201 206 209 215 208 210 211 201 199 206 214 222 235 231 203 208 237 254 261 273 325 348 339 291 235 244 257 262 270 253 240 258 275 270
167 196 205 208 209 206 206 205 216 221 210 204 209 214 218 224 225 229 227 235 247 251 254 244 219 209 280 287 284 233 241 271 273 270 254 247 262 270
201 208 214 215 211 209 209 211 217 216 213 218 221 220 218 220 226 230 229 231 243 250 257 249 230 222 231 254 268 276 260 250 252 264 272 273 273 283
212 216 215 212 213 212 212 213 216 220 220 219 224 224 224 220 229 236 238 245 244 245 252 255 250 248 241 249 276 281 278 266 254 251 261 276 287 285
212 217 219 217 213 212 213 213 218 225 224 224 227 228 223 220 229 235 237 242 244 243 251 260 256 230 216 239 261 272 282 292 287 274 261 248 241 249
218 220 220 218 219 218 215 216 220 227 226 226 230 228 222 225 232 237 242 243 248 251 256 261 256 242 242 245 256 267 274 282 284 288 283 276 269 272
Height
1545 1545 1545 1545 1545 1545 1545 1545 1546 1546 1547 1547 1547 1548 1548 1548 1548 1548 1548 1547 1547 1546 1545 1545 1544 1543 1542 1542 1541 1540 1539 1538 1537 1536 1535 1534 1533 1532
1545 1545 1545 1544 1544 1544 1544 1544 1545 1545 1545 1546 1547 1547 1547 1548 1548 1548 1547 1547 1547 1546 1546 1545 1544 1543 1542 1541 1540 1539 1538 1537 1536 1535 1534 1533 1532 1531
1544 1544 1544 1544 1544 1543 1544 1544 1544 1544 1544 1546 1546 1547 1547 1547 1547 1547 1547 1547 1546 1546 1545 1545 1544 1543 1542 1541 1540 1539 1538 1537 1535 1534 1533 1532 1531 1530
1543 1543 1543 1543 1543 1543 1543 1543 1543 1544 1544 1544 1545 1546 1546 1546 1547 1547 1547 1546 1546 1545 1545 1544 1543 1542 1541 1540 1539 1538 1537 1535 1534 1533 1532 1531 1530 1528
1542 1542 1542 1542 1542 1542 1543 1543 1543 1543 1543 1544 1544 1545 1545 1545 1545 1545 1545 1545 1545 1544 1544 1543 1542 1542 1540 1539 1538 1537 1536 1535 1533 1532 1531 1530 1528 1527
1541 1541 1541 1541 1542 1542 1542 1542 1542 1542 1543 1543 1543 1543 1544 1544 1544 1544 1544 1544 1543 1543 1543 1542 1541 1540 1539 1538 1537 1536 1534 1533 1532 1531 1529 1528 1527 1525
1540 1540 1540 1541 1541 1541 1541 1541 1541 1542 1542 1542 1542 1542 1542 1542 1542 1542 1542 1542 1542 1542 1541 1541 1540 1539 1538 1537 1536 1535 1533 1532 1530 1529 1528 1527 1525 1524
1539 1539 1539 1540 1540 1540 1540 1540 1541 1541 1541 1541 1540 1540 1540 1540 1540 1540 1540 1540 1540 1541 1539 1539 1538 1537 1536 1535 1534 1533 1532 1530 1529 1527 1526 1525 1523 1522
1538 1538 1538 1538 1539 1539 1539 1539 1539 1540 1540 1540 1539 1539 1539 1539 1539 1538 1538 1538 1538 1538 1537 1536 1536 1535 1534 1533 1532 1531 1530 1528 1527 1525 1524 1522 1521 1520
1536 1536 1537 1537 1537 1538 1538 1538 1538 1538 1538 1538 1538 1538 1538 1537 1537 1537 1536 1536 1536 1535 1535 1534 1533 1532 1532 1530 1529 1528 1527 1526 1524 1523 1521 1520 1518 1517
1535 1535 1535 1535 1536 1536 1536 1536 1536 1536 1537 1536 1536 1536 1536 1535 1535 1535 1534 1533 1533 1532 1532 1531 1530 1529 1528 1527 1526 1525 1524 1523 1521 1520 1519 1517 1516 1514
1533 1533 1533 1533 1534 1534 1534 1534 1534 1534 1534 1534 1534 1534 1533 1533 1533 1532 1532 1531 1530 1530 1529 1528 1527 1526 1525 1524 1523 1522 1521 1519 1518 1517 1515 1514 1512 1511
1530 1530 1531 1531 1532 1532 1532 1532 1532 1532 1532 1532 1531 1531 1531 1530 1530 1530 1529 1529 1528 1527 1527 1525 1524 1523 1522 1521 1520 1519 1517 1516 1514 1513 1512 1510 1509 1507
1527 1528 1528 1529 1529 1529 1529 1529 1530 1529 1529 1529 1528 1528 1528 1528 1527 1527 1526 1526 1525 1524 1524 1522 1521 1520 1519 1517 1516 1515 1514 1512 1511 1509 1508 1506 1505 1504
1524 1525 1525 1526 1526 1526 1526 1526 1527 1526 1526 1526 1525 1525 1525 1525 1524 1524 1523 1522 1521 1521 1520 1519 1518 1517 1516 1514 1512 1511 1510 1508 1507 1505 1503 1502 1500 1499
1520 1521 1521 1522 1522 1522 1522 1523 1523 1523 1523 1522 1522 1522 1522 1521 1521 1520 1519 1518 1517 1517 1516 1515 1514 1513 1511 1510 1509 1507 1506 1505 1503 1501 1499 1498 1496 1494
1517 1517 1517 1518 1518 1518 1518 1519 1519 1519 1519 1519 1519 1518 1518 1517 1517 1516 1515 1514 1513 1512 1512 1511 1510 1509 1508 1506 1504 1503 1502 1500 1499 1497 1494 1492 1491 1490
1513 1512 1513 1513 1514 1514 1514 1515 1515 1515 1515 1515 1514 1514 1513 1513 1512 1512 1511 1510 1509 1508 1507 1507 1506 1504 1503 1501 1501 1499 1497 1495 1494 1492 1490 1487 1485 1485
1508 1508 1509 1509 1509 1510 1510 1510 1511 1511 1511 1511 1510 1510 1509 1509 1508 1507 1507 1506 1505 1504 1503 1503 1501 1500 1498 1496 1495 1495 1493 1491 1489 1487 1485 1483 1480 1479
1503 1503 1504 1504 1505 1505 1506 1506 1506 1506 1506 1506 1505 1505 1504 1504 1503 1502 1502 1501 1500 1499 1498 1497 1496 1495 1494 1493 1490 1489 1489 1486 1484 1481 1480 1478 1476 1474
1498 1498 1499 1499 1500 1500 1501 1501 1501 1501 1501 1501 1500 1500 1499 1499 1498 1497 1497 1496 1495 1494 1493 1492 1491 1491 1490 1488 1486 1483 1483 1482 1480 1478 1475 1473 1470 1468
1493 1494 1494 1495 1495 1495 1495 1495 1495 1495 1495 1495 1495 1494 1494 1494 1493 1492 1491 1491 1489 1488 1487 1487 1486 1485 1484 1482 1480 1478 1476 1475 1474 1473 1471 1469 1467 1463
1488 1489 1489 1490 1490 1490 1490 1490 1490 1490 1490 1490 1489 1489 1488 1488 1487 1487 1486 1485 1484 1483 1482 1481 1480 1479 1478 1476 1475 1472 1471 1469 1467 1466 1465 1464 1462 1460